Location: Central Falls
(41.8900°N, 71.3929°W)
Time: 13:27:28
(UTC+00:00)

Vanguard 2 Rocket - Pass Details

Date: 05 December 2023
Orbit: 554 x 3310 km, 32.9° (Epoch: 22 February)

Event Time Altitude Azimuth Distance (km) Brightness Sun altitude
Rises 01:09:35 0° 280° (W) 7,287 12.3 -43.0°
Reaches altitude 10° 01:15:18 10° 273° (W) 6,153 11.7 -44.0°
Maximum altitude 01:30:56 35° 218° (SW) 3,657 9.9 -46.9°
Enters shadow 01:34:27 32° 194° (SSW) 3,555 9.7 -47.5°
